Gaylord, MI

4:41 PM EDT on April 25, 2017 (GMT -0400)
Otsego County

Weather History for KGLR - April, 2013

Change the Weather History Date:

Sunday, April 28, 2013

  Actual Average Record
Temperature  
Mean Temperature 54 °F -  
Max Temperature 71 °F 61 °F 83 °F (1986)
Min Temperature 37 °F 35 °F 21 °F (1982)
Degree Days  
Heating Degree Days 12    
Growing Degree Days 4 (Base 50)    
Moisture  
Dew Point 39 °F    
Average Humidity 60    
Maximum Humidity 93    
Minimum Humidity 25    
Precipitation  
Precipitation 0.00 in - - ()
Sea Level Pressure  
Sea Level Pressure 29.95 in    
Wind  
Wind Speed 4 mph (SSE)    
Max Wind Speed 14 mph    
Max Gust Speed 23 mph    
Visibility 10 miles    
Events      
Averages and records for this station are not official NWS values.
T = Trace of Precipitation, MM = Missing Value Source: NWS Daily Summary

Daily Weather History Graph

Daily Weather History Graph

Search for Another Location

Airport or City:

Trip Planner

Search our weather history database for the weather conditions in past years. The results will help you decide how hot, cold, wet, or windy it might be!

Date:

Astronomy

Apr. 28, 2013 Rise Set
Actual Time 6:32 AM EDT 8:41 PM EDT
Civil Twilight 6:00 AM EDT 9:13 PM EDT
Nautical Twilight 5:20 AM EDT 9:52 PM EDT
Astronomical Twilight 4:36 AM EDT 10:37 PM EDT
Moon No Moon Rise 8:43 AM EDT (4/28)
Length of Visible Light 15h 12m
Length of Day
14h 08m
Waning Gibbous, 89% of the Moon is Illuminated
Apr 28
Waning Gibbous
May 2
Last Quarter
May 9
New
May 18
First Quarter
May 25
Full

Hourly Weather History & Observations

Time (EDT) Temp. Windchill Dew Point Humidity Pressure Visibility Wind Dir Wind Speed Gust Speed Precip Events Conditions
12:53 AM 45.0 °F - 41.0 °F 86% 30.09 in 10.0 mi Calm Calm - N/A   Clear
1:53 AM 45.0 °F - 42.1 °F 90% 30.08 in 10.0 mi Calm Calm - N/A   Clear
2:53 AM 43.0 °F 41.3 °F 39.9 °F 89% 30.07 in 10.0 mi SSE 3.5 mph - N/A   Clear
3:53 AM 42.1 °F - 37.9 °F 85% 30.06 in 10.0 mi Calm Calm - N/A   Clear
4:53 AM 37.0 °F - 34.0 °F 89% 30.04 in 10.0 mi Calm Calm - N/A   Clear
5:53 AM 37.9 °F - 36.0 °F 93% 30.04 in 9.0 mi Calm Calm - N/A   Clear
6:53 AM 41.0 °F 39.0 °F 35.1 °F 79% 30.04 in 10.0 mi SSE 3.5 mph - N/A   Clear
7:53 AM 46.0 °F 44.8 °F 37.0 °F 71% 30.04 in 10.0 mi SSE 3.5 mph - N/A   Mostly Cloudy
9:53 AM 55.9 °F - 36.0 °F 47% 30.01 in 10.0 mi SSE 3.5 mph - N/A   Overcast
10:53 AM 57.0 °F - 35.1 °F 44% 29.99 in 10.0 mi Calm Calm - N/A   Overcast
11:53 AM 60.1 °F - 35.1 °F 39% 29.97 in 10.0 mi ESE 4.6 mph - N/A   Overcast
12:53 PM 64.9 °F - 34.0 °F 32% 29.95 in 10.0 mi SE 8.1 mph - N/A   Overcast
1:53 PM 69.1 °F - 32.0 °F 25% 29.92 in 10.0 mi SE 12.7 mph 19.6 mph N/A   Mostly Cloudy
2:53 PM 68.0 °F - 32.0 °F 26% 29.90 in 10.0 mi South 8.1 mph - N/A   Overcast
3:53 PM 70.0 °F - 36.0 °F 29% 29.87 in 10.0 mi SSE 13.8 mph 19.6 mph N/A   Overcast
4:53 PM 69.1 °F - 39.0 °F 33% 29.86 in 10.0 mi SSE 8.1 mph 23.0 mph N/A   Mostly Cloudy
5:53 PM 66.0 °F - 43.0 °F 43% 29.86 in 10.0 mi SSE 11.5 mph - N/A   Mostly Cloudy
6:53 PM 66.0 °F - 43.0 °F 43% 29.86 in 10.0 mi SSE 12.7 mph - N/A   Clear
7:53 PM 62.1 °F - 43.0 °F 50% 29.85 in 10.0 mi SSE 9.2 mph - N/A   Clear
8:53 PM 59.0 °F - 44.1 °F 58% 29.86 in 10.0 mi South 8.1 mph - N/A   Partly Cloudy
9:53 PM 55.0 °F - 45.0 °F 69% 29.87 in 10.0 mi SE 6.9 mph - N/A   Mostly Cloudy
10:53 PM 53.1 °F - 45.0 °F 74% 29.87 in 8.0 mi SSE 5.8 mph - N/A   Clear
11:53 PM 50.0 °F - 45.0 °F 83% 29.86 in 4.0 mi SE 5.8 mph - N/A   Haze